WAT1316 EDDP-LEMD

Flight info

Callsign WAT1316
Flight time 2h 23m
Altitude 40000
Route NEVKO2S NEVKO Q243 BAMKI Z94 KOMIB DCT TEDGO/N0464F410 N869 NATOR DCT LUTIX DCT BENOT DCT NEMOS DCT NINTU DCT MEBAK DCT REPSI DCT LERGA DCT MINSO DCT NARAK DCT AGN DCT MAQAB DCT TIVLI N869 ZAR Z245 TERSA
Aircraft A343/H-SDE2E3FGHIJ4J5M1RWXY/LB1D1

Departure

Time 2026-05-06 16:46
Airport Leipzig/Halle Airport (EDDP)

Arrival

Time 2026-05-06 19:09
Airport Adolfo Suárez Madrid–Barajas Airport (LEMD)
Time Latitude Longitude Altitude Speed Heading
2026-05-06 16:19 51.41895 12.22028 447 ft 0 kts 16°
2026-05-06 16:32 51.41874 12.22019 447 ft 4 kts 15°
2026-05-06 16:32 51.41848 12.22008 447 ft 4 kts 15°
2026-05-06 16:32 51.41827 12.21997 449 ft 4 kts 45°
2026-05-06 16:33 51.41819 12.21963 447 ft 4 kts 95°
2026-05-06 16:33 51.41821 12.21936 447 ft 1 kts 105°
2026-05-06 16:38 51.41812 12.21991 447 ft 10 kts 105°
2026-05-06 16:38 51.41777 12.22202 454 ft 29 kts 105°
2026-05-06 16:38 51.41717 12.22552 463 ft 33 kts 105°
2026-05-06 16:38 51.41660 12.22884 468 ft 30 kts 105°
2026-05-06 16:39 51.41606 12.23203 468 ft 29 kts 103°
2026-05-06 16:39 51.41609 12.23520 468 ft 28 kts 85°
2026-05-06 16:39 51.41624 12.23817 471 ft 26 kts 85°
2026-05-06 16:39 51.41635 12.24096 477 ft 24 kts 86°
2026-05-06 16:40 51.41647 12.24357 473 ft 26 kts 85°
2026-05-06 16:40 51.41664 12.24672 473 ft 29 kts 82°
2026-05-06 16:40 51.41801 12.24827 480 ft 23 kts 13°
2026-05-06 16:40 51.41944 12.24882 494 ft 19 kts 14°
2026-05-06 16:41 51.42063 12.24930 492 ft 18 kts 14°
2026-05-06 16:41 51.42200 12.24982 485 ft 26 kts 13°
2026-05-06 16:41 51.42425 12.25066 474 ft 34 kts 13°
2026-05-06 16:41 51.42663 12.25157 467 ft 36 kts 13°
2026-05-06 16:42 51.42912 12.25251 454 ft 33 kts 14°
2026-05-06 16:42 51.42996 12.25470 458 ft 23 kts 85°
2026-05-06 16:42 51.43008 12.25727 456 ft 24 kts 85°
2026-05-06 16:42 51.43020 12.25982 458 ft 23 kts 85°
2026-05-06 16:43 51.43033 12.26240 456 ft 23 kts 85°
2026-05-06 16:43 51.43043 12.26490 459 ft 22 kts 86°
2026-05-06 16:43 51.43054 12.26740 459 ft 22 kts 85°
2026-05-06 16:43 51.43133 12.26910 461 ft 19 kts 14°
2026-05-06 16:44 51.43256 12.26850 462 ft 19 kts 316°
2026-05-06 16:44 51.43340 12.26678 458 ft 21 kts 294°
2026-05-06 16:44 51.43353 12.26445 457 ft 12 kts 265°
2026-05-06 16:44 51.43352 12.26431 457 ft 2 kts 265°
2026-05-06 16:45 51.43351 12.26413 457 ft 0 kts 265°
2026-05-06 16:45 51.43346 12.26323 455 ft 33 kts 265°
2026-05-06 16:45 51.43309 12.25492 462 ft 115 kts 266°
2026-05-06 16:45 51.43232 12.23809 463 ft 183 kts 268°
2026-05-06 16:46 51.43158 12.21713 1246 ft 196 kts 269°
2026-05-06 16:46 51.43099 12.19418 1872 ft 222 kts 268°
2026-05-06 16:46 51.42987 12.16763 2391 ft 254 kts 265°
2026-05-06 16:46 51.42771 12.13818 3021 ft 275 kts 263°
2026-05-06 16:47 51.42599 12.10768 4283 ft 268 kts 264°
2026-05-06 16:47 51.42466 12.07866 5749 ft 256 kts 264°
2026-05-06 16:47 51.42334 12.05019 6839 ft 259 kts 264°
2026-05-06 16:47 51.42196 12.02156 7785 ft 263 kts 264°
2026-05-06 16:48 51.42043 11.99211 8766 ft 267 kts 262°
2026-05-06 16:48 51.41574 11.96327 9701 ft 270 kts 244°
2026-05-06 16:48 51.40457 11.93871 10342 ft 283 kts 222°
2026-05-06 16:48 51.38779 11.92015 10718 ft 304 kts 211°
2026-05-06 16:49 51.36892 11.90317 11276 ft 316 kts 210°
2026-05-06 16:49 51.34956 11.88588 12029 ft 322 kts 210°
2026-05-06 16:49 51.32993 11.86810 12823 ft 326 kts 210°
2026-05-06 16:49 51.31004 11.84993 13624 ft 330 kts 210°
2026-05-06 16:50 51.29008 11.83161 14359 ft 334 kts 211°
2026-05-06 16:50 51.26973 11.81288 15130 ft 337 kts 211°
2026-05-06 16:50 51.24988 11.79269 15883 ft 340 kts 216°
2026-05-06 16:50 51.23095 11.76982 16640 ft 343 kts 218°
2026-05-06 16:51 51.21209 11.74620 17374 ft 347 kts 218°
2026-05-06 16:51 51.19316 11.72245 18018 ft 353 kts 218°
2026-05-06 16:51 51.17372 11.69812 18641 ft 357 kts 218°
2026-05-06 16:51 51.15400 11.67350 19282 ft 361 kts 218°
2026-05-06 16:52 51.13412 11.64873 19904 ft 364 kts 218°
2026-05-06 16:52 51.11405 11.62377 20527 ft 368 kts 218°
2026-05-06 16:52 51.09372 11.59851 21156 ft 372 kts 218°
2026-05-06 16:52 51.07321 11.57306 21767 ft 375 kts 218°
2026-05-06 16:53 51.05252 11.54742 22372 ft 379 kts 218°
2026-05-06 16:53 51.03163 11.52156 22961 ft 382 kts 218°
2026-05-06 16:53 51.01084 11.49586 23469 ft 386 kts 218°
2026-05-06 16:53 50.98956 11.46959 23948 ft 389 kts 218°
2026-05-06 16:54 50.96813 11.44315 24459 ft 390 kts 218°
2026-05-06 16:54 50.94669 11.41674 25002 ft 391 kts 218°
2026-05-06 16:54 50.92512 11.39021 25531 ft 392 kts 217°
2026-05-06 16:54 50.90353 11.36368 26026 ft 394 kts 217°
2026-05-06 16:55 50.88187 11.33709 26527 ft 395 kts 218°
2026-05-06 16:55 50.86084 11.30875 26989 ft 397 kts 223°
2026-05-06 16:55 50.84219 11.27627 27480 ft 399 kts 229°
2026-05-06 16:55 50.82475 11.24197 27959 ft 401 kts 231°
2026-05-06 16:56 50.80777 11.20699 28375 ft 403 kts 231°
2026-05-06 16:56 50.79086 11.17148 28778 ft 405 kts 231°
2026-05-06 16:56 50.77385 11.13575 29193 ft 407 kts 231°
2026-05-06 16:56 50.75675 11.10003 29614 ft 409 kts 231°
2026-05-06 16:57 50.73945 11.06422 29983 ft 411 kts 230°
2026-05-06 16:57 50.72071 11.03035 30322 ft 411 kts 224°
2026-05-06 16:57 50.69917 11.00055 30653 ft 412 kts 217°
2026-05-06 16:57 50.67652 10.97380 30966 ft 413 kts 216°
2026-05-06 16:58 50.65303 10.94750 31294 ft 415 kts 215°
2026-05-06 16:58 50.62925 10.92156 31576 ft 417 kts 214°
2026-05-06 16:58 50.60529 10.89568 31854 ft 419 kts 214°
2026-05-06 16:58 50.58127 10.86977 32192 ft 419 kts 215°
2026-05-06 16:59 50.55724 10.84377 32620 ft 418 kts 215°
2026-05-06 16:59 50.53338 10.81789 33066 ft 416 kts 215°
2026-05-06 16:59 50.50961 10.79198 33490 ft 415 kts 216°
2026-05-06 16:59 50.48594 10.76622 33884 ft 413 kts 216°
2026-05-06 17:00 50.46230 10.74054 34139 ft 414 kts 216°
2026-05-06 17:00 50.43853 10.71475 34399 ft 414 kts 216°
2026-05-06 17:00 50.41478 10.68894 34632 ft 416 kts 216°
2026-05-06 17:00 50.39114 10.66329 34762 ft 420 kts 215°
2026-05-06 17:01 50.36696 10.63712 34993 ft 421 kts 215°
2026-05-06 17:01 50.34287 10.61110 35336 ft 421 kts 215°
2026-05-06 17:01 50.31872 10.58500 35610 ft 422 kts 215°
2026-05-06 17:01 50.29451 10.55894 35845 ft 423 kts 215°
2026-05-06 17:02 50.27027 10.53294 36085 ft 424 kts 214°
2026-05-06 17:02 50.24591 10.50681 36317 ft 424 kts 215°
2026-05-06 17:02 50.22264 10.47828 36519 ft 425 kts 222°
2026-05-06 17:02 50.20115 10.44644 36760 ft 426 kts 224°
2026-05-06 17:03 50.18008 10.41370 36967 ft 427 kts 225°
2026-05-06 17:03 50.15938 10.38077 37345 ft 424 kts 225°
2026-05-06 17:03 50.13887 10.34783 37617 ft 423 kts 225°
2026-05-06 17:03 50.11854 10.31512 37805 ft 425 kts 225°
2026-05-06 17:04 50.09780 10.28227 37984 ft 426 kts 223°
2026-05-06 17:04 50.07515 10.25250 38191 ft 427 kts 216°
2026-05-06 17:04 50.04996 10.22781 38381 ft 428 kts 208°
2026-05-06 17:04 50.02331 10.20706 38553 ft 429 kts 206°
2026-05-06 17:05 49.99612 10.18750 38714 ft 430 kts 205°
2026-05-06 17:05 49.96874 10.16859 38877 ft 430 kts 205°
2026-05-06 17:05 49.94147 10.15004 39179 ft 426 kts 205°
2026-05-06 17:05 49.91462 10.13181 39381 ft 425 kts 205°
2026-05-06 17:06 49.88752 10.11332 39512 ft 426 kts 205°
2026-05-06 17:06 49.86036 10.09468 39642 ft 427 kts 205°
2026-05-06 17:06 49.83312 10.07593 39760 ft 428 kts 205°
2026-05-06 17:07 49.77819 10.03803 39789 ft 435 kts 205°
2026-05-06 17:07 49.72304 10.00006 39789 ft 433 kts 205°
2026-05-06 17:08 49.66797 9.96225 39796 ft 432 kts 205°
2026-05-06 17:08 49.61295 9.92457 39810 ft 433 kts 205°
2026-05-06 17:09 49.55761 9.88676 39801 ft 436 kts 205°
2026-05-06 17:09 49.50245 9.84917 39801 ft 436 kts 205°
2026-05-06 17:10 49.44696 9.81147 39801 ft 435 kts 205°
2026-05-06 17:10 49.39161 9.77395 39802 ft 435 kts 205°
2026-05-06 17:11 49.33616 9.73645 39804 ft 435 kts 205°
2026-05-06 17:11 49.28084 9.69913 39810 ft 434 kts 205°
2026-05-06 17:12 49.22549 9.66188 39812 ft 433 kts 205°
2026-05-06 17:12 49.17049 9.62496 39804 ft 433 kts 205°
2026-05-06 17:13 49.11525 9.58796 39799 ft 433 kts 205°
2026-05-06 17:13 49.05995 9.55102 39808 ft 433 kts 205°
2026-05-06 17:14 49.00477 9.51425 39813 ft 433 kts 205°
2026-05-06 17:14 48.94952 9.47752 39818 ft 433 kts 205°
2026-05-06 17:15 48.89412 9.44077 39823 ft 433 kts 204°
2026-05-06 17:15 48.83880 9.40417 39835 ft 434 kts 204°
2026-05-06 17:16 48.78368 9.36780 39830 ft 434 kts 204°
2026-05-06 17:16 48.73729 9.33725 39830 ft 434 kts 204°
2026-05-06 17:17 48.68191 9.30085 39790 ft 433 kts 204°
2026-05-06 17:17 48.62949 9.25760 40013 ft 431 kts 217°
2026-05-06 17:17 48.60688 9.22808 40210 ft 430 kts 225°
2026-05-06 17:18 48.58743 9.19374 40406 ft 430 kts 231°
2026-05-06 17:18 48.56945 9.15765 40561 ft 430 kts 233°
2026-05-06 17:18 48.55202 9.12088 40747 ft 430 kts 234°
2026-05-06 17:19 48.51751 9.04654 40841 ft 435 kts 234°
2026-05-06 17:19 48.48242 8.97153 40842 ft 438 kts 233°
2026-05-06 17:20 48.44709 8.89695 40851 ft 436 kts 233°
2026-05-06 17:20 48.41169 8.82274 40848 ft 436 kts 233°
2026-05-06 17:21 48.37624 8.74865 40854 ft 436 kts 233°
2026-05-06 17:21 48.34080 8.67475 40850 ft 436 kts 233°
2026-05-06 17:22 48.30532 8.60094 40870 ft 436 kts 233°
2026-05-06 17:22 48.26992 8.52752 40859 ft 437 kts 233°
2026-05-06 17:23 48.23418 8.45356 40866 ft 438 kts 233°
2026-05-06 17:23 48.19832 8.37959 40863 ft 438 kts 233°
2026-05-06 17:24 48.15738 8.31250 40869 ft 436 kts 219°
2026-05-06 17:24 48.10783 8.25997 40864 ft 437 kts 213°
2026-05-06 17:25 48.05697 8.21112 40875 ft 437 kts 212°
2026-05-06 17:25 48.00556 8.16239 40880 ft 438 kts 213°
2026-05-06 17:26 47.95423 8.11346 40878 ft 438 kts 213°
2026-05-06 17:26 47.90291 8.06438 40880 ft 438 kts 213°
2026-05-06 17:27 47.85158 8.01532 40896 ft 438 kts 213°
2026-05-06 17:27 47.80013 7.96628 40890 ft 439 kts 213°
2026-05-06 17:28 47.74873 7.91742 40891 ft 439 kts 213°
2026-05-06 17:28 47.69730 7.86865 40889 ft 439 kts 213°
2026-05-06 17:29 47.64586 7.81999 40893 ft 439 kts 213°
2026-05-06 17:29 47.59472 7.77173 40888 ft 439 kts 213°
2026-05-06 17:30 47.54307 7.72310 40885 ft 439 kts 213°
2026-05-06 17:30 47.49161 7.67477 40887 ft 437 kts 213°
2026-05-06 17:31 47.44020 7.62659 40887 ft 437 kts 213°
2026-05-06 17:31 47.38906 7.57878 40885 ft 437 kts 213°
2026-05-06 17:32 47.33734 7.53054 40896 ft 437 kts 213°
2026-05-06 17:32 47.28624 7.48299 40910 ft 436 kts 213°
2026-05-06 17:33 47.23481 7.43524 40919 ft 436 kts 213°
2026-05-06 17:33 47.18389 7.38685 40911 ft 435 kts 218°
2026-05-06 17:34 47.14049 7.32515 40915 ft 434 kts 229°
2026-05-06 17:34 47.10222 7.25647 40897 ft 434 kts 231°
2026-05-06 17:35 47.06481 7.18677 40885 ft 434 kts 231°
2026-05-06 17:35 47.02737 7.11733 40914 ft 435 kts 231°
2026-05-06 17:36 46.97089 7.01388 40903 ft 435 kts 231°
2026-05-06 17:36 46.93307 6.94499 40909 ft 434 kts 231°
2026-05-06 17:37 46.89512 6.87597 40911 ft 435 kts 231°
2026-05-06 17:37 46.85704 6.80703 40911 ft 436 kts 231°
2026-05-06 17:38 46.81888 6.73824 40911 ft 436 kts 231°
2026-05-06 17:38 46.78069 6.66951 40979 ft 436 kts 231°
2026-05-06 17:39 46.74271 6.60128 40909 ft 436 kts 231°
2026-05-06 17:39 46.70446 6.53274 40908 ft 436 kts 231°
2026-05-06 17:40 46.66619 6.46432 40917 ft 436 kts 231°
2026-05-06 17:40 46.62769 6.39568 40911 ft 437 kts 231°
2026-05-06 17:41 46.58917 6.32716 40915 ft 438 kts 231°
2026-05-06 17:41 46.55083 6.25914 40916 ft 438 kts 231°
2026-05-06 17:42 46.51223 6.19082 40914 ft 437 kts 231°
2026-05-06 17:42 46.47359 6.12260 40916 ft 437 kts 231°
2026-05-06 17:43 46.43493 6.05451 40917 ft 437 kts 231°
2026-05-06 17:43 46.39611 5.98632 40913 ft 438 kts 231°
2026-05-06 17:44 46.35734 5.91838 40914 ft 438 kts 231°
2026-05-06 17:44 46.31854 5.85055 40915 ft 437 kts 231°
2026-05-06 17:45 46.27966 5.78274 40914 ft 438 kts 230°
2026-05-06 17:45 46.24078 5.71510 40914 ft 437 kts 230°
2026-05-06 17:46 46.20179 5.64744 40918 ft 437 kts 230°
2026-05-06 17:46 46.16315 5.58055 40917 ft 437 kts 230°
2026-05-06 17:47 46.12675 5.51022 40917 ft 438 kts 235°
2026-05-06 17:47 46.09190 5.43805 40914 ft 438 kts 235°
2026-05-06 17:48 46.05730 5.36577 40914 ft 438 kts 235°
2026-05-06 17:48 46.02283 5.29402 40913 ft 438 kts 235°
2026-05-06 17:49 45.98808 5.22201 40910 ft 437 kts 235°
2026-05-06 17:49 45.95335 5.15032 40911 ft 437 kts 235°
2026-05-06 17:50 45.91853 5.07861 40909 ft 438 kts 235°
2026-05-06 17:50 45.88359 5.00683 40914 ft 438 kts 235°
2026-05-06 17:51 45.84864 4.93522 40905 ft 438 kts 235°
2026-05-06 17:51 45.81364 4.86369 40912 ft 437 kts 235°
2026-05-06 17:52 45.77869 4.79243 40911 ft 437 kts 235°
2026-05-06 17:52 45.74366 4.72118 40911 ft 437 kts 235°
2026-05-06 17:53 45.70859 4.65004 40910 ft 438 kts 235°
2026-05-06 17:53 45.67359 4.57910 40909 ft 439 kts 235°
2026-05-06 17:54 45.63833 4.50794 40911 ft 438 kts 235°
2026-05-06 17:54 45.60305 4.43691 40910 ft 438 kts 235°
2026-05-06 17:55 45.56775 4.36598 40912 ft 438 kts 235°
2026-05-06 17:55 45.53242 4.29517 40911 ft 438 kts 234°
2026-05-06 17:56 45.50297 4.23619 40909 ft 439 kts 234°
2026-05-06 17:56 45.46743 4.16538 40912 ft 439 kts 234°
2026-05-06 17:57 45.43178 4.09457 40911 ft 439 kts 234°
2026-05-06 17:57 45.39609 4.02383 40911 ft 439 kts 234°
2026-05-06 17:58 45.36045 3.95333 40917 ft 439 kts 234°
2026-05-06 17:58 45.31890 3.87136 40904 ft 439 kts 234°
2026-05-06 17:59 45.28313 3.80097 40912 ft 439 kts 234°
2026-05-06 17:59 45.24730 3.73053 40914 ft 439 kts 235°
2026-05-06 18:00 45.21220 3.65945 40916 ft 439 kts 236°
2026-05-06 18:00 45.17759 3.58869 40918 ft 439 kts 236°
2026-05-06 18:01 45.14259 3.51757 40917 ft 439 kts 235°
2026-05-06 18:01 45.10752 3.44677 40917 ft 438 kts 235°
2026-05-06 18:02 45.07243 3.37615 40923 ft 438 kts 235°
2026-05-06 18:02 45.04331 3.31769 40925 ft 438 kts 235°
2026-05-06 18:03 45.00820 3.24734 40925 ft 438 kts 235°
2026-05-06 18:03 44.97306 3.17709 40925 ft 438 kts 235°
2026-05-06 18:04 44.93789 3.10696 40928 ft 437 kts 235°
2026-05-06 18:04 44.90265 3.03687 40937 ft 437 kts 235°
2026-05-06 18:05 44.86765 2.96741 40934 ft 438 kts 235°
2026-05-06 18:05 44.83257 2.89718 40933 ft 438 kts 237°
2026-05-06 18:06 44.79943 2.82505 40942 ft 438 kts 238°
2026-05-06 18:06 44.76678 2.75274 40940 ft 438 kts 238°
2026-05-06 18:07 44.73378 2.68067 40943 ft 438 kts 237°
2026-05-06 18:07 44.70051 2.60880 40942 ft 439 kts 237°
2026-05-06 18:08 44.66704 2.53687 40942 ft 440 kts 237°
2026-05-06 18:08 44.63346 2.46484 40953 ft 440 kts 237°
2026-05-06 18:09 44.59992 2.39305 40956 ft 440 kts 237°
2026-05-06 18:09 44.56631 2.32128 40957 ft 439 kts 237°
2026-05-06 18:10 44.53300 2.25032 40955 ft 438 kts 237°
2026-05-06 18:10 44.49941 2.17893 40953 ft 439 kts 237°
2026-05-06 18:11 44.46567 2.10743 40949 ft 440 kts 237°
2026-05-06 18:11 44.43188 2.03597 40945 ft 440 kts 237°
2026-05-06 18:12 44.39803 1.96459 40933 ft 440 kts 237°
2026-05-06 18:12 44.36428 1.89358 40946 ft 438 kts 237°
2026-05-06 18:13 44.33055 1.82278 40944 ft 438 kts 237°
2026-05-06 18:13 44.29695 1.75242 40944 ft 438 kts 237°
2026-05-06 18:14 44.26365 1.68114 40945 ft 438 kts 238°
2026-05-06 18:14 44.23092 1.60932 40946 ft 438 kts 238°
2026-05-06 18:15 44.19816 1.53771 40948 ft 438 kts 238°
2026-05-06 18:15 44.16525 1.46631 40952 ft 437 kts 238°
2026-05-06 18:16 44.13228 1.39509 40955 ft 437 kts 238°
2026-05-06 18:16 44.09916 1.32376 40958 ft 437 kts 238°
2026-05-06 18:17 44.06634 1.25322 40955 ft 437 kts 238°
2026-05-06 18:17 44.03319 1.18213 40963 ft 437 kts 238°
2026-05-06 18:18 44.00009 1.11133 40963 ft 437 kts 238°
2026-05-06 18:18 43.96697 1.04067 40969 ft 436 kts 238°
2026-05-06 18:19 43.93383 0.97013 40971 ft 436 kts 238°
2026-05-06 18:19 43.90070 0.90030 40971 ft 436 kts 235°
2026-05-06 18:20 43.85977 0.83799 40974 ft 438 kts 225°
2026-05-06 18:20 43.81469 0.78106 40970 ft 439 kts 224°
2026-05-06 18:21 43.76890 0.72510 40975 ft 438 kts 223°
2026-05-06 18:21 43.72318 0.66922 40979 ft 438 kts 224°
2026-05-06 18:22 43.67756 0.61328 40977 ft 438 kts 224°
2026-05-06 18:22 43.63193 0.55730 40985 ft 438 kts 224°
2026-05-06 18:23 43.58659 0.50179 40980 ft 438 kts 224°
2026-05-06 18:23 43.54098 0.44609 40981 ft 438 kts 224°
2026-05-06 18:24 43.49537 0.39049 40985 ft 437 kts 224°
2026-05-06 18:24 43.44970 0.33495 40998 ft 438 kts 223°
2026-05-06 18:25 43.40398 0.27945 40996 ft 438 kts 223°
2026-05-06 18:25 43.35824 0.22406 40997 ft 437 kts 223°
2026-05-06 18:26 43.31278 0.16914 40993 ft 438 kts 223°
2026-05-06 18:26 43.26703 0.11399 41004 ft 437 kts 223°
2026-05-06 18:27 43.22126 0.05893 40993 ft 437 kts 223°
2026-05-06 18:27 43.17549 0.00398 41006 ft 436 kts 223°
2026-05-06 18:28 43.13002 -0.05049 41019 ft 437 kts 223°
2026-05-06 18:28 43.08425 -0.10520 41019 ft 437 kts 223°
2026-05-06 18:29 43.03825 -0.16007 41016 ft 437 kts 223°
2026-05-06 18:29 42.99245 -0.21459 41007 ft 436 kts 223°
2026-05-06 18:30 42.94666 -0.26899 41005 ft 435 kts 223°
2026-05-06 18:30 42.90092 -0.32321 40997 ft 435 kts 223°
2026-05-06 18:31 42.85519 -0.37734 40990 ft 435 kts 223°
2026-05-06 18:31 42.80811 -0.42848 40988 ft 438 kts 214°
2026-05-06 18:32 42.75301 -0.46471 40978 ft 441 kts 205°
2026-05-06 18:32 42.69568 -0.49530 40979 ft 442 kts 204°
2026-05-06 18:33 42.63844 -0.52476 40968 ft 442 kts 204°
2026-05-06 18:33 42.58098 -0.55455 40963 ft 442 kts 204°
2026-05-06 18:34 42.52364 -0.58450 40951 ft 441 kts 204°
2026-05-06 18:34 42.46642 -0.61441 40949 ft 440 kts 204°
2026-05-06 18:35 42.40925 -0.64426 40932 ft 441 kts 204°
2026-05-06 18:35 42.35208 -0.67402 40937 ft 440 kts 204°
2026-05-06 18:36 42.29494 -0.70371 40940 ft 439 kts 204°
2026-05-06 18:36 42.23795 -0.73326 40939 ft 439 kts 204°
2026-05-06 18:37 42.19004 -0.75806 40919 ft 439 kts 205°
2026-05-06 18:37 42.12366 -0.79236 40943 ft 439 kts 204°
2026-05-06 18:38 42.06658 -0.82179 40936 ft 440 kts 204°
2026-05-06 18:38 42.00946 -0.85118 40935 ft 439 kts 204°
2026-05-06 18:39 41.95266 -0.88035 40936 ft 439 kts 204°
2026-05-06 18:40 41.86694 -0.92425 40947 ft 439 kts 204°
2026-05-06 18:40 41.80978 -0.95347 40946 ft 439 kts 204°
2026-05-06 18:41 41.75258 -0.98264 40929 ft 439 kts 204°
2026-05-06 18:41 41.69586 -1.01153 40938 ft 438 kts 204°
2026-05-06 18:42 41.65764 -1.03688 40937 ft 432 kts 216°
2026-05-06 18:42 41.61087 -1.08668 40939 ft 429 kts 224°
2026-05-06 18:43 41.56659 -1.13999 40941 ft 429 kts 225°
2026-05-06 18:43 41.52263 -1.19372 40735 ft 426 kts 225°
2026-05-06 18:43 41.50074 -1.22030 40244 ft 426 kts 224°
2026-05-06 18:44 41.47880 -1.24682 39687 ft 428 kts 224°
2026-05-06 18:44 41.45661 -1.27353 39122 ft 430 kts 224°
2026-05-06 18:44 41.43433 -1.30028 38591 ft 430 kts 224°
2026-05-06 18:44 41.41234 -1.32662 38004 ft 429 kts 224°
2026-05-06 18:45 41.39016 -1.35315 37499 ft 427 kts 224°
2026-05-06 18:45 41.36813 -1.37947 37015 ft 424 kts 224°
2026-05-06 18:45 41.34622 -1.40563 36489 ft 422 kts 224°
2026-05-06 18:45 41.33146 -1.42323 36147 ft 420 kts 224°
2026-05-06 18:46 41.30279 -1.45743 35468 ft 418 kts 224°
2026-05-06 18:46 41.28124 -1.48310 34922 ft 413 kts 224°
2026-05-06 18:46 41.25987 -1.50854 34297 ft 411 kts 224°
2026-05-06 18:46 41.23864 -1.53381 33602 ft 409 kts 224°
2026-05-06 18:47 41.21746 -1.55899 32903 ft 408 kts 224°
2026-05-06 18:47 41.20346 -1.57561 32452 ft 406 kts 224°
2026-05-06 18:47 41.17529 -1.60904 31530 ft 406 kts 224°
2026-05-06 18:47 41.16131 -1.62563 31067 ft 408 kts 224°
2026-05-06 18:48 41.13293 -1.65925 30334 ft 407 kts 224°
2026-05-06 18:48 41.11902 -1.67571 30016 ft 405 kts 224°
2026-05-06 18:48 41.09098 -1.70884 29288 ft 401 kts 224°
2026-05-06 18:48 41.07718 -1.72513 28952 ft 399 kts 224°
2026-05-06 18:49 41.04992 -1.75729 28290 ft 394 kts 224°
2026-05-06 18:49 41.03605 -1.77364 27933 ft 392 kts 224°
2026-05-06 18:49 41.00923 -1.80529 27273 ft 388 kts 224°
2026-05-06 18:49 40.99563 -1.82128 26927 ft 386 kts 224°
2026-05-06 18:50 40.96918 -1.85235 26250 ft 383 kts 224°
2026-05-06 18:50 40.95598 -1.86786 25902 ft 382 kts 224°
2026-05-06 18:50 40.93615 -1.89112 25403 ft 380 kts 224°
2026-05-06 18:50 40.91631 -1.91440 25047 ft 382 kts 224°
2026-05-06 18:51 40.89629 -1.93793 24949 ft 387 kts 224°
2026-05-06 18:51 40.87773 -1.96349 24915 ft 384 kts 233°
2026-05-06 18:51 40.86180 -1.99156 24691 ft 381 kts 236°
2026-05-06 18:51 40.84657 -2.02019 24447 ft 380 kts 237°
2026-05-06 18:52 40.83157 -2.04882 24198 ft 379 kts 237°
2026-05-06 18:52 40.81665 -2.07743 23873 ft 378 kts 237°
2026-05-06 18:52 40.80180 -2.10596 23634 ft 377 kts 237°
2026-05-06 18:52 40.78699 -2.13445 23376 ft 374 kts 237°
2026-05-06 18:53 40.77227 -2.16274 23101 ft 373 kts 237°
2026-05-06 18:53 40.75765 -2.19083 22825 ft 372 kts 237°
2026-05-06 18:53 40.74300 -2.21896 22556 ft 371 kts 237°
2026-05-06 18:53 40.72846 -2.24684 22294 ft 369 kts 237°
2026-05-06 18:54 40.71388 -2.27480 22018 ft 368 kts 237°
2026-05-06 18:54 40.69947 -2.30240 21728 ft 363 kts 237°
2026-05-06 18:54 40.68541 -2.32929 21309 ft 359 kts 237°
2026-05-06 18:54 40.67109 -2.35667 20880 ft 357 kts 237°
2026-05-06 18:55 40.65719 -2.38324 20450 ft 356 kts 237°
2026-05-06 18:55 40.64315 -2.41004 19990 ft 355 kts 236°
2026-05-06 18:55 40.62914 -2.43676 19536 ft 354 kts 236°
2026-05-06 18:55 40.61514 -2.46343 19098 ft 353 kts 236°
2026-05-06 18:56 40.60122 -2.48994 18671 ft 353 kts 236°
2026-05-06 18:56 40.58728 -2.51646 18196 ft 352 kts 236°
2026-05-06 18:56 40.57336 -2.54293 17711 ft 350 kts 236°
2026-05-06 18:56 40.55952 -2.56921 17258 ft 349 kts 236°
2026-05-06 18:57 40.54574 -2.59536 16813 ft 347 kts 236°
2026-05-06 18:57 40.53194 -2.62152 16354 ft 346 kts 235°
2026-05-06 18:57 40.51823 -2.64750 15891 ft 346 kts 235°
2026-05-06 18:57 40.50473 -2.67305 15448 ft 345 kts 235°
2026-05-06 18:58 40.49088 -2.69924 14994 ft 344 kts 234°
2026-05-06 18:58 40.47741 -2.72470 14554 ft 343 kts 234°
2026-05-06 18:58 40.46377 -2.75044 14103 ft 342 kts 234°
2026-05-06 18:58 40.45018 -2.77609 13724 ft 340 kts 234°
2026-05-06 18:59 40.43668 -2.80153 13247 ft 339 kts 234°
2026-05-06 18:59 40.42327 -2.82677 12802 ft 336 kts 234°
2026-05-06 18:59 40.40994 -2.85185 12366 ft 333 kts 234°
2026-05-06 18:59 40.39676 -2.87663 11929 ft 331 kts 234°
2026-05-06 19:00 40.38361 -2.90135 11490 ft 329 kts 234°
2026-05-06 19:00 40.37054 -2.92588 11048 ft 327 kts 234°
2026-05-06 19:00 40.35754 -2.95026 10596 ft 325 kts 234°
2026-05-06 19:00 40.34465 -2.97441 10306 ft 319 kts 234°
2026-05-06 19:01 40.33221 -2.99774 10177 ft 307 kts 234°
2026-05-06 19:01 40.32016 -3.02029 10049 ft 297 kts 234°
2026-05-06 19:01 40.30868 -3.04178 9922 ft 287 kts 234°
2026-05-06 19:01 40.29731 -3.06302 9652 ft 283 kts 234°
2026-05-06 19:02 40.28599 -3.08416 9272 ft 284 kts 234°
2026-05-06 19:02 40.27465 -3.10531 8897 ft 283 kts 234°
2026-05-06 19:02 40.26448 -3.12729 8535 ft 282 kts 246°
2026-05-06 19:02 40.26073 -3.15221 8185 ft 282 kts 271°
2026-05-06 19:03 40.26309 -3.17760 7845 ft 281 kts 279°
2026-05-06 19:03 40.26656 -3.20265 7495 ft 280 kts 279°
2026-05-06 19:03 40.27007 -3.22780 7140 ft 279 kts 279°
2026-05-06 19:03 40.27349 -3.25271 6863 ft 277 kts 279°
2026-05-06 19:04 40.27683 -3.27759 6517 ft 277 kts 279°
2026-05-06 19:04 40.28012 -3.30235 6232 ft 275 kts 279°
2026-05-06 19:04 40.28396 -3.32693 6024 ft 275 kts 286°
2026-05-06 19:04 40.29018 -3.35055 5885 ft 273 kts 290°
2026-05-06 19:05 40.29699 -3.37379 5502 ft 274 kts 291°
2026-05-06 19:05 40.30643 -3.39492 5103 ft 273 kts 315°
2026-05-06 19:05 40.32078 -3.41097 4774 ft 271 kts 323°
2026-05-06 19:05 40.33615 -3.42516 4375 ft 270 kts 325°
2026-05-06 19:06 40.35089 -3.43979 4211 ft 261 kts 321°
2026-05-06 19:06 40.36483 -3.45429 4026 ft 248 kts 322°
2026-05-06 19:06 40.37782 -3.46752 4000 ft 221 kts 322°
2026-05-06 19:06 40.38936 -3.47913 3822 ft 199 kts 323°
2026-05-06 19:07 40.39983 -3.48969 3551 ft 181 kts 322°
2026-05-06 19:07 40.40620 -3.49617 3405 ft 169 kts 322°
2026-05-06 19:07 40.41783 -3.50799 3134 ft 148 kts 322°
2026-05-06 19:07 40.42570 -3.51599 2898 ft 137 kts 323°
2026-05-06 19:08 40.43317 -3.52355 2719 ft 135 kts 323°
2026-05-06 19:08 40.44056 -3.53106 2523 ft 134 kts 322°
2026-05-06 19:08 40.44801 -3.53860 2357 ft 136 kts 322°
2026-05-06 19:08 40.45554 -3.54618 2166 ft 137 kts 322°
2026-05-06 19:09 40.46307 -3.55375 2042 ft 136 kts 322°
2026-05-06 19:09 40.47014 -3.56103 1989 ft 113 kts 321°
2026-05-06 19:09 40.47496 -3.56594 1989 ft 62 kts 322°
2026-05-06 19:09 40.47687 -3.56800 1989 ft 10 kts 312°
2026-05-06 19:10 40.47739 -3.56892 1989 ft 19 kts 302°
2026-05-06 19:10 40.47797 -3.57072 1987 ft 17 kts 270°
2026-05-06 19:10 40.47741 -3.57106 1988 ft 9 kts 164°
2026-05-06 19:10 40.47685 -3.57057 1989 ft 11 kts 143°
2026-05-06 19:11 40.47620 -3.56993 1989 ft 12 kts 143°
2026-05-06 19:11 40.47549 -3.56922 1989 ft 14 kts 143°
2026-05-06 19:11 40.47468 -3.56842 1989 ft 15 kts 142°
2026-05-06 19:11 40.47381 -3.56798 1989 ft 12 kts 200°
2026-05-06 19:12 40.47316 -3.56874 1988 ft 13 kts 224°
2026-05-06 19:12 40.47276 -3.56975 1987 ft 13 kts 262°
2026-05-06 19:12 40.47274 -3.56996 1986 ft 0 kts 262°